RH
24 29 32 32 29 25 21 22 23 21 20 23 26 29 30 29 29 21 18 28 32 37 36 28 26 20 17 24 26 28 31 33 36 38 41 44 47 49 51 52 52 53 54 55 55 54 54 56 58 62 64 65 69 77 86 90 90 90 94 99 100 100 99 100 100 99 99 97 96 96 96 96 98 98 99 99 100 99 93 84 79 78 80 80 78 83
27 34 35 28 23 20 19 19 20 21 24 27 30 34 32 31 28 18 24 34 33 39 36 24 23 18 18 26 27 30 34 35 37 39 43 46 50 53 54 55 55 55 55 56 57 56 54 53 53 55 59 63 65 70 78 84 88 91 93 97 99 100 100 100 100 99 99 99 98 96 92 91 92 94 97 97 99 99 99 94 84 79 78 77 78 83
31 35 31 23 21 22 20 19 20 23 30 35 35 37 36 32 27 24 32 34 28 35 34 25 25 19 21 30 30 34 40 41 43 43 46 50 53 56 57 57 56 55 55 55 56 55 54 51 48 47 48 52 57 62 68 74 81 86 88 90 93 96 99 100 100 100 100 99 99 99 97 97 96 96 98 98 99 100 100 98 87 79 78 76 77 82
29 26 22 22 24 24 21 21 25 27 32 38 38 38 36 33 34 34 33 29 25 30 30 27 28 24 27 35 35 38 43 45 49 50 52 54 56 57 57 57 55 54 53 53 52 50 48 44 40 39 39 39 42 46 50 55 65 72 76 79 83 87 92 97 99 100 100 100 100 99 99 100 99 99 100 99 100 100 100 99 89 80 81 81 80 82
29 21 20 27 27 22 24 27 31 34 33 32 34 38 35 32 33 32 27 24 23 26 27 28 31 31 35 40 43 43 43 45 48 50 53 55 56 57 57 58 58 58 57 55 54 52 47 42 36 33 31 32 32 33 33 35 41 49 57 64 70 75 80 87 95 99 99 99 100 100 99 100 100 100 100 100 101 100 100 100 96 89 87 85 83 86
29 22 23 30 27 24 30 34 34 35 32 27 32 40 36 30 31 29 27 28 27 25 28 34 36 35 36 41 45 45 45 46 46 47 50 52 55 57 57 59 60 61 62 61 59 55 49 43 37 32 28 26 26 27 27 27 28 31 36 43 51 59 66 72 81 90 96 98 99 100 100 100 100 100 100 100 100 100 100 100 99 97 95 91 86 85
27 23 26 30 31 31 33 36 33 32 33 30 33 41 38 33 35 34 31 35 34 27 27 32 33 33 34 38 44 47 49 48 46 46 48 49 53 55 57 59 60 61 62 62 59 54 50 44 39 38 35 30 27 25 24 23 24 24 25 27 31 38 46 54 63 73 84 92 96 98 99 100 100 100 100 99 99 99 100 100 100 99 99 98 93 87
32 28 29 32 33 32 33 34 31 31 34 31 35 44 43 38 38 35 34 37 33 26 25 26 29 32 31 34 43 48 51 51 49 49 49 50 52 53 54 55 57 58 60 61 59 55 53 51 49 48 44 41 36 29 24 22 22 21 21 21 22 24 27 33 41 51 63 73 82 89 94 97 99 100 100 99 100 100 100 100 100 100 100 99 99 96
33 32 34 38 35 29 31 31 29 34 33 30 40 49 46 42 39 36 37 36 31 33 34 26 28 34 33 41 49 49 54 57 54 53 52 52 52 51 52 53 54 56 57 59 60 58 56 55 56 55 51 46 41 35 29 26 23 22 21 20 19 20 20 21 25 32 40 49 59 69 78 85 91 96 99 100 100 100 100 100 100 100 100 100 100 100
33 33 31 34 34 30 33 30 28 36 34 33 41 44 42 43 43 43 44 39 34 43 46 29 25 30 32 47 54 49 55 59 56 57 55 52 52 52 53 55 55 55 57 58 60 63 62 59 59 59 54 48 44 40 35 29 25 22 21 21 20 20 19 19 20 21 25 30 37 45 54 64 72 80 88 94 98 99 100 100 100 100 100 100 100 100
37 38 31 31 36 35 36 30 27 35 34 34 38 35 34 35 33 36 39 41 44 51 44 27 26 28 31 49 59 56 57 57 58 60 56 52 53 55 57 57 55 55 57 58 60 65 67 66 64 61 58 54 47 43 37 32 27 25 23 22 21 21 20 20 20 20 20 22 25 29 34 41 48 57 67 79 88 95 98 100 100 100 100 100 100 99
32 43 39 35 33 32 38 32 28 39 40 40 40 31 28 26 22 25 27 37 54 57 37 22 26 26 31 54 66 64 59 56 58 60 57 56 55 57 60 58 54 52 53 57 61 66 68 69 68 65 62 59 54 48 42 36 30 26 25 25 24 23 21 20 20 20 21 21 21 22 24 27 31 37 45 57 69 80 89 97 100 100 100 100 100 100
24 41 46 43 34 29 36 30 26 38 40 36 31 25 31 35 32 32 29 31 43 41 24 21 26 25 39 61 62 59 58 54 56 57 55 56 56 59 60 57 55 52 50 52 56 62 66 66 66 64 61 59 58 56 51 45 38 30 24 22 23 24 25 24 22 21 21 21 22 22 22 23 25 27 30 36 47 59 70 81 90 97 100 100 100 100
29 38 37 39 37 32 32 25 23 29 25 24 22 24 37 43 42 43 37 32 35 27 16 18 22 26 49 67 56 52 55 51 53 56 56 58 59 60 60 56 55 55 52 48 47 53 59 62 62 60 59 56 55 57 57 54 51 45 36 27 23 21 22 25 26 26 24 23 22 23 23 23 24 24 26 27 31 39 48 58 70 81 91 97 99 100
33 33 28 28 28 29 29 26 30 30 26 26 24 25 36 39 42 46 40 39 39 30 21 20 23 35 56 66 56 50 51 50 52 54 54 58 58 58 58 54 50 52 52 48 45 44 46 51 55 56 57 55 51 52 56 56 56 58 54 46 39 31 25 23 23 24 26 26 25 24 23 23 24 24 25 26 27 29 33 40 50 60 71 82 89 95
30 26 23 23 19 21 28 27 30 34 32 27 20 23 33 33 35 39 36 34 33 33 29 23 36 59 65 59 51 49 49 49 49 49 48 52 52 49 49 47 44 47 50 47 45 43 40 43 50 52 53 54 51 47 50 52 54 56 55 53 51 47 44 38 32 26 23 25 27 27 26 24 24 25 24 25 26 26 28 31 37 44 53 63 72 81
34 27 20 20 19 20 26 26 25 29 30 26 24 28 31 28 29 35 36 28 27 40 38 22 36 64 69 61 54 51 53 53 50 51 49 49 50 46 43 41 38 38 43 43 42 43 42 40 44 49 50 51 51 47 47 49 51 52 50 49 49 49 52 52 50 44 34 28 25 25 28 28 26 25 25 25 26 26 28 28 31 37 42 50 58 65
37 36 23 18 22 19 19 28 32 29 29 33 33 32 32 32 28 30 39 41 41 48 39 26 35 58 77 80 69 61 65 65 61 60 58 53 52 49 42 38 35 33 34 35 36 39 42 42 42 47 48 49 51 49 47 49 50 51 49 48 48 47 50 52 55 56 53 45 37 28 26 27 30 30 28 26 26 26 27 28 29 34 39 48 55 57
38 45 32 18 22 18 14 28 35 27 28 36 35 32 36 44 45 43 48 54 60 61 54 50 52 67 89 91 81 80 81 78 72 68 64 56 50 46 40 35 34 32 30 29 30 32 35 39 42 46 46 45 48 50 48 49 49 50 50 50 50 48 49 51 52 56 59 59 56 47 36 28 26 30 32 31 29 27 27 28 29 31 35 44 52 52
37 49 43 22 18 19 15 20 23 20 27 34 33 32 35 44 56 61 56 59 74 80 78 75 68 78 96 89 84 90 84 77 75 70 66 58 49 45 41 39 38 36 35 33 33 31 31 32 36 42 44 42 45 49 48 48 48 48 48 49 49 48 47 48 49 53 57 60 62 62 57 46 34 27 27 31 33 33 31 29 28 31 32 34 40 43
34 40 41 27 20 26 25 19 20 25 31 34 36 46 57 59 61 65 60 63 80 87 87 86 77 83 93 80 76 83 77 74 75 71 69 62 53 49 44 43 42 39 38 37 35 34 32 31 32 36 41 40 40 42 44 47 46 44 45 46 47 47 45 44 45 49 54 58 60 61 62 61 54 43 32 27 29 34 39 36 31 30 31 31 33 36
40 40 41 39 32 30 24 15 21 30 31 31 35 50 70 72 69 79 78 65 68 75 80 85 83 88 91 76 71 77 75 75 74 70 67 57 49 46 40 39 38 36 37 36 34 34 32 32 32 33 37 38 36 36 39 43 43 40 41 43 46 47 46 45 44 46 49 54 58 60 59 60 63 62 54 42 33 31 35 39 38 35 33 31 31 32
45 46 46 44 32 26 22 17 24 32 29 29 31 42 65 72 72 91 96 79 71 70 69 72 76 87 91 79 76 78 72 68 63 57 54 47 41 39 35 34 34 33 33 31 31 31 30 31 32 32 35 36 36 35 37 41 42 39 40 43 45 47 47 47 46 46 48 51 55 59 60 61 64 66 66 64 57 46 36 35 38 40 38 34 32 31
46 49 49 47 33 23 22 19 21 27 30 32 33 44 67 76 73 79 82 77 77 77 78 79 80 86 91 86 79 70 60 55 50 43 41 39 36 35 34 34 34 33 32 32 32 31 30 31 32 33 37 40 42 41 40 42 42 41 42 44 46 47 48 48 49 48 48 49 52 55 58 64 67 68 70 73 74 67 52 42 39 40 41 39 35 32
57 52 52 62 59 47 43 40 38 37 35 34 39 52 66 72 74 74 70 69 72 76 79 81 80 78 80 81 71 55 50 48 43 39 38 36 35 34 34 34 32 33 34 36 36 34 33 34 34 36 40 45 49 49 49 49 48 47 46 46 47 49 50 50 51 51 50 50 53 54 57 63 68 72 75 77 79 75 63 50 43 43 43 40 39 38
66 58 53 68 80 82 82 73 57 47 38 35 45 59 65 70 75 74 74 77 79 81 79 78 83 75 61 59 54 47 50 50 42 39 37 35 35 34 34 34 33 34 36 37 37 36 36 38 40 43 48 53 56 56 55 52 50 51 51 50 50 50 51 53 53 53 52 51 54 56 59 62 67 73 78 80 81 78 69 57 48 47 44 41 46 53
62 57 46 56 73 84 80 61 43 38 37 43 58 65 64 68 70 72 82 84 81 88 82 70 76 77 58 48 45 44 50 49 42 40 39 37 37 35 35 34 33 34 35 35 35 36 41 44 46 48 50 52 53 52 52 52 54 56 57 57 55 53 53 54 54 56 56 54 56 58 60 63 67 74 80 81 80 80 77 65 55 52 47 43 48 55
63 60 52 59 65 61 51 39 34 32 30 43 63 65 61 65 68 76 87 78 72 90 87 61 62 72 61 49 45 46 49 48 43 41 40 39 39 37 35 34 34 34 33 34 37 42 48 50 49 49 48 47 47 47 49 52 57 61 63 63 62 62 61 58 58 61 61 60 61 59 59 62 68 74 78 77 77 81 80 69 63 63 57 51 48 48
64 60 58 65 59 44 38 36 33 29 29 43 59 56 52 59 64 72 78 64 62 84 83 61 57 64 57 48 43 41 43 46 45 42 40 39 39 39 38 37 37 36 35 39 44 46 48 49 49 49 46 43 44 47 50 53 59 64 67 70 70 70 70 69 67 65 64 64 63 62 62 64 69 75 78 80 81 82 79 74 74 76 69 59 53 49
62 58 54 60 60 50 46 39 31 32 34 44 54 50 48 53 54 60 64 54 54 66 62 54 58 59 49 41 38 41 46 48 44 40 39 39 39 40 41 41 39 37 37 41 42 43 47 50 50 50 49 51 55 59 59 61 68 71 72 74 76 76 77 76 72 68 68 69 68 69 68 66 69 73 79 87 88 84 82 82 84 85 76 63 57 52
63 64 54 58 68 61 47 36 35 39 35 40 53 53 48 51 54 59 61 56 61 66 58 58 68 61 42 36 44 51 51 46 41 38 38 38 39 41 41 42 41 39 39 40 42 47 52 54 55 57 60 64 66 63 58 58 65 69 69 73 78 80 79 78 74 71 71 74 75 72 65 62 71 81 87 93 92 88 91 92 91 90 80 66 59 55
66 69 56 60 73 64 43 35 40 36 28 43 67 66 57 60 63 64 63 61 65 71 71 72 73 62 47 46 52 50 44 41 40 39 38 39 42 43 42 42 42 42 42 43 49 56 59 63 70 71 68 66 63 60 58 58 59 62 64 69 75 78 78 77 76 77 78 80 79 74 69 71 81 90 96 98 96 95 98 98 96 91 79 67 61 57
68 70 60 61 74 66 43 36 41 39 40 61 78 70 64 67 67 65 64 60 57 64 76 78 69 59 54 53 51 47 44 44 43 41 42 44 45 43 41 41 42 42 45 50 57 64 69 76 81 77 70 66 62 60 62 65 68 70 73 75 78 81 84 83 84 87 89 87 83 79 79 83 87 93 99 101 100 99 101 101 98 89 76 66 62 62
64 67 62 60 69 69 49 38 44 50 60 73 69 56 59 67 70 73 70 62 56 56 62 65 61 57 55 51 50 51 48 46 45 44 46 46 45 42 41 43 44 44 51 61 67 71 76 81 80 74 68 66 67 66 65 66 73 80 84 87 91 94 96 97 97 98 94 89 86 82 78 79 87 96 101 101 100 101 101 100 97 88 74 66 66 72
62 63 60 58 64 64 50 49 63 64 61 65 58 50 57 58 56 64 63 56 54 53 53 60 62 57 51 48 47 48 46 46 47 48 48 46 44 43 44 47 47 48 56 69 73 75 80 81 77 72 66 66 72 74 68 64 68 73 74 78 84 87 89 89 89 92 91 86 82 79 76 81 92 98 101 102 102 101 100 98 95 86 75 72 77 83
58 60 57 56 61 63 55 61 74 60 44 56 64 56 58 58 54 63 69 58 48 49 56 63 60 51 48 49 48 47 47 47 49 50 50 46 44 47 50 50 50 53 61 71 75 77 78 74 71 71 67 67 75 77 72 71 76 80 81 80 80 81 83 84 83 86 88 85 82 82 86 94 100 101 101 97 92 93 98 99 95 89 83 85 89 89
46 54 59 59 58 62 64 63 63 50 43 69 84 65 53 58 56 62 75 65 47 47 56 57 54 50 50 51 49 48 48 53 57 54 47 46 50 54 53 52 54 59 67 74 77 75 73 69 68 69 68 70 76 77 76 81 87 89 90 90 88 89 95 96 91 88 89 90 93 97 99 100 101 100 96 87 83 91 99 99 97 94 94 96 95 90
36 43 56 66 60 57 64 66 68 67 63 77 83 58 42 48 43 46 70 74 58 52 51 49 53 55 52 51 50 49 57 70 72 59 50 56 61 61 63 65 65 66 71 77 77 73 71 70 70 69 70 76 80 78 81 92 95 91 89 91 93 97 101 98 92 91 96 99 98 96 96 98 98 96 93 90 93 100 101 99 99 100 100 100 96 88
38 40 49 65 68 62 67 75 80 77 72 75 73 51 40 45 39 47 76 79 59 52 52 50 54 55 52 53 52 54 72 88 80 62 57 64 66 67 71 71 70 73 78 80 79 76 73 73 78 82 84 85 87 88 94 99 95 89 89 94 98 100 98 96 95 97 98 94 89 90 95 98 99 97 97 98 99 98 96 97 100 100 99 98 93 88
52 57 62 70 71 64 68 76 74 66 64 67 62 50 43 40 42 67 91 76 51 52 57 54 54 55 53 55 56 64 79 86 79 68 65 66 67 67 68 68 73 82 85 81 77 77 78 83 89 92 88 86 92 98 97 93 90 92 96 99 100 99 98 100 99 96 92 89 91 97 100 100 99 96 95 96 95 94 95 96 96 96 95 93 92 93
64 69 73 70 67 66 70 78 74 63 59 58 52 47 44 42 55 81 87 66 52 57 58 53 54 56 55 57 64 70 73 74 75 72 70 70 67 61 62 72 79 79 75 75 75 76 84 94 95 88 82 87 96 95 87 87 94 99 99 98 99 100 100 100 96 92 94 97 99 100 99 98 96 95 96 98 97 95 93 92 92 94 93 94 96 99
79 81 79 68 68 73 73 77 77 64 53 50 49 43 42 56 78 81 63 51 53 56 55 55 57 57 58 63 69 73 75 79 79 73 71 75 71 64 69 80 80 70 66 73 80 85 94 101 96 88 86 89 90 87 88 96 101 97 94 97 101 101 98 96 95 96 99 100 96 94 93 93 94 97 98 97 92 89 86 85 89 93 94 98 101 102
79 87 86 71 71 78 76 78 82 67 46 43 50 49 48 61 72 60 46 49 54 52 54 58 58 59 65 69 75 82 84 82 78 74 76 78 75 76 84 84 77 74 77 84 91 96 98 97 93 92 91 88 88 92 97 101 98 93 95 100 101 99 98 98 98 99 98 94 91 91 92 93 94 94 91 86 84 85 84 83 89 94 97 100 102 101
75 82 85 75 73 83 86 79 71 60 46 42 49 53 49 48 47 43 46 52 52 52 56 59 61 65 70 75 84 90 85 75 73 77 79 78 79 86 90 83 80 85 91 95 98 97 95 94 94 94 93 93 96 99 98 97 97 98 99 99 98 99 100 99 98 96 93 92 92 93 94 94 91 86 82 83 87 90 90 91 95 98 99 100 100 100
71 67 75 80 75 74 77 68 53 48 46 42 42 42 40 40 42 45 50 53 54 56 59 63 69 70 73 81 86 83 77 73 77 82 82 83 88 90 87 84 87 92 95 98 99 95 93 96 98 97 97 98 99 96 93 97 103 102 99 99 99 100 100 98 96 94 93 93 93 93 93 92 85 81 84 90 95 97 98 99 100 100 100 100 100 100
54 52 61 74 72 63 60 52 42 42 43 40 40 41 42 46 47 49 53 55 58 62 64 69 73 71 74 81 78 73 75 78 83 88 89 91 93 88 84 88 93 95 98 100 99 95 95 99 101 100 100 99 97 94 94 100 103 101 100 100 99 99 98 95 92 92 92 93 92 91 93 91 86 86 88 90 91 95 97 99 100 100 100 100 100 100
51 57 59 67 74 74 67 49 36 41 43 40 43 48 49 51 49 49 55 59 61 66 70 72 71 71 76 78 73 74 83 87 89 93 94 93 89 85 88 95 97 98 102 101 96 95 98 101 101 100 100 99 97 97 100 102 100 99 101 100 97 96 97 97 97 95 92 93 94 92 93 95 94 93 90 84 81 83 86 90 97 101 101 100 100 100
59 65 68 68 69 69 62 44 35 43 47 46 54 56 51 50 49 50 57 63 63 67 72 72 72 75 79 79 76 80 88 91 93 94 92 89 88 89 95 99 99 101 103 97 92 95 100 101 100 100 101 100 98 99 101 101 99 99 101 100 97 95 97 101 103 99 93 93 95 96 98 101 100 96 90 84 79 77 76 79 86 92 94 97 100 101
62 72 74 69 67 65 58 46 45 57 62 59 58 55 48 46 48 53 61 66 66 70 75 75 76 80 81 80 80 84 90 93 94 93 91 90 91 95 99 99 100 102 99 91 92 98 101 100 101 101 101 100 99 100 100 99 99 99 101 100 97 95 98 100 99 97 94 93 95 99 102 102 100 97 93 89 83 78 74 75 76 79 85 93 99 101
62 76 72 70 78 75 62 53 60 77 83 70 56 51 48 47 52 60 66 69 70 74 78 79 82 84 82 79 82 88 92 94 94 94 94 94 96 99 99 99 102 101 93 88 95 101 101 100 101 101 101 100 100 100 100 99 99 99 100 100 98 97 98 98 96 96 97 95 96 101 103 101 100 100 98 93 88 82 77 74 72 72 78 89 98 102
59 66 65 72 80 70 56 56 64 73 74 61 50 50 50 52 60 68 71 72 75 76 80 86 91 89 82 80 86 92 95 96 96 94 95 97 100 100 99 101 102 97 90 91 99 102 101 100 100 101 101 100 100 100 100 100 100 100 100 100 100 99 97 94 94 96 98 99 99 101 103 102 100 100 99 97 94 90 84 78 73 70 69 74 83 89
Wind_Speed
1 3 4 4 4 5 7 7 8 8 9 10 8 8 8 9 9 11 9 2 4 1 5 6 6 11 5 6 7 10 13 13 13 13 14 14 14 14 14 14 15 16 17 18 20 23 25 26 26 25 22 18 14 11 9 6 5 5 7 7 6 5 5 9 13 14 17 21 25 27 30 35 39 41 42 43 44 44 43 42 41 41 40 39 40 38
1 3 4 3 5 7 8 8 8 9 8 8 7 7 8 7 9 11 6 1 3 1 5 5 8 11 3 7 7 9 10 9 11 12 13 14 14 14 13 14 15 15 16 18 21 23 25 28 29 29 28 24 21 18 15 11 10 9 8 8 8 7 6 5 7 11 14 17 23 27 28 29 32 38 41 42 44 45 45 46 44 43 42 42 43 42
2 2 1 5 6 6 8 8 8 9 7 6 6 5 6 5 7 8 2 1 1 1 4 7 10 8 3 8 6 8 9 9 12 13 14 15 14 14 14 15 15 16 18 20 22 24 25 28 29 31 31 30 28 25 22 17 12 11 10 11 11 11 9 7 6 8 11 13 17 21 27 30 30 34 38 39 42 44 45 47 47 45 45 45 45 45
3 3 3 5 6 6 8 7 7 8 5 5 5 5 6 5 6 5 2 3 4 4 8 11 11 4 5 7 5 9 12 14 15 16 16 15 15 15 15 15 16 17 19 21 23 25 26 28 29 31 32 32 32 31 29 26 21 17 16 15 15 14 13 11 9 9 9 11 13 14 20 27 29 32 35 36 39 41 41 44 46 47 46 46 46 46
6 6 5 6 5 6 8 7 7 6 4 5 5 4 5 6 7 7 7 9 9 8 12 12 10 5 6 7 5 8 12 14 14 15 16 15 14 14 14 14 15 16 18 20 22 24 26 28 29 29 30 30 31 32 32 31 29 25 22 20 17 16 16 14 13 11 10 9 11 13 15 19 21 24 28 31 34 38 40 42 44 45 47 48 47 48
6 4 5 6 5 6 7 6 6 4 4 6 3 2 5 7 9 10 10 9 8 8 6 3 6 5 6 9 7 8 8 9 11 13 13 14 13 13 13 13 13 14 15 18 20 23 25 27 29 29 29 30 30 30 30 29 29 28 27 25 22 19 17 17 15 13 12 10 8 8 9 10 11 13 17 20 24 30 34 39 42 44 47 48 48 49
3 2 2 3 4 6 7 4 4 5 4 5 2 2 5 6 9 11 10 6 5 7 5 1 6 6 3 7 9 10 8 9 9 9 11 14 14 13 14 13 13 14 14 16 19 22 24 26 28 28 29 30 30 29 28 27 27 27 27 27 26 24 22 19 18 16 13 12 10 9 7 6 6 8 10 13 16 20 23 28 34 38 42 44 45 48
2 3 1 2 4 6 5 2 4 5 4 5 2 3 6 8 10 12 10 7 6 8 10 7 7 7 5 4 9 12 10 9 9 8 10 13 14 15 15 14 14 15 15 15 18 21 22 23 25 26 27 28 29 30 29 29 28 27 26 27 27 26 25 24 21 19 16 14 13 12 11 9 8 8 9 11 13 16 17 20 26 29 33 36 38 43
1 3 3 4 4 4 3 2 4 5 4 5 3 4 7 10 12 12 9 8 6 5 9 9 6 7 5 3 8 10 10 8 8 8 8 12 14 14 14 14 14 15 15 16 16 18 20 21 21 22 24 25 27 29 30 30 30 29 27 26 26 25 25 26 25 23 20 17 15 14 14 12 11 11 10 11 12 14 15 16 19 22 26 29 32 35
1 3 4 3 1 3 3 4 6 3 5 6 7 8 10 10 11 11 8 6 5 5 8 10 7 7 4 4 6 5 6 7 7 7 8 12 14 14 14 15 15 15 16 16 16 15 17 19 20 20 21 24 26 27 29 30 31 31 29 28 27 26 25 25 25 25 23 21 19 17 16 15 14 14 13 13 12 13 15 15 15 17 20 23 26 29
5 0 2 2 1 2 3 7 9 8 7 7 8 8 10 9 8 8 6 4 3 4 9 13 12 10 5 2 3 1 2 6 7 7 8 11 13 13 13 14 15 16 16 17 17 16 16 17 19 19 21 23 26 27 29 30 32 32 32 32 31 29 27 25 25 25 24 23 22 21 20 18 17 16 15 14 14 14 15 16 15 15 17 19 22 25
6 1 2 2 3 1 3 7 7 5 4 4 4 6 8 8 5 5 3 3 2 5 8 9 8 7 5 1 4 4 7 8 7 6 8 10 11 12 12 13 16 17 17 17 18 17 17 18 18 18 20 22 24 27 28 30 32 32 33 33 33 32 31 29 26 25 24 24 23 22 22 21 20 19 17 16 15 15 15 16 16 16 17 18 20 22
7 1 3 1 2 1 3 7 6 3 3 3 5 7 6 6 5 5 5 3 4 7 7 4 6 4 1 2 6 7 9 9 9 9 10 10 11 11 12 13 15 17 18 18 18 17 17 18 18 18 18 19 21 23 24 27 30 31 32 32 31 31 31 32 31 28 25 24 23 23 22 22 22 21 19 17 16 15 16 16 17 18 18 18 19 19
5 2 2 1 0 1 2 7 7 5 7 8 8 6 4 5 6 7 6 6 7 8 8 8 9 5 2 4 6 9 10 12 14 14 13 12 11 11 12 14 16 16 17 18 17 17 17 17 18 18 18 18 19 20 20 22 25 27 29 30 30 29 28 28 30 31 30 27 24 23 23 23 22 22 21 20 18 16 16 17 17 18 19 20 20 20
6 3 3 4 5 8 5 4 5 6 9 10 7 4 5 4 6 7 6 7 9 9 11 11 9 4 2 4 7 11 14 17 17 16 15 13 13 12 12 14 17 16 16 17 17 17 18 18 17 17 18 18 20 21 21 22 22 22 24 25 26 26 25 24 25 27 30 31 29 25 23 23 23 23 22 21 20 19 18 17 17 18 18 20 21 22
5 5 3 7 14 15 9 4 3 5 7 6 4 4 5 4 4 7 8 11 13 11 10 8 3 3 4 5 9 13 14 16 16 16 16 15 14 14 14 16 18 18 17 17 16 17 19 19 17 17 19 18 18 21 22 23 24 23 23 22 21 21 21 21 21 21 23 26 30 30 28 25 23 23 23 23 22 21 20 19 18 17 17 18 20 21
4 7 8 13 15 9 7 6 5 8 7 4 5 6 6 5 4 8 10 11 13 10 7 5 1 3 5 6 8 10 11 12 13 14 16 16 16 16 17 19 21 20 19 18 17 17 18 19 19 18 18 18 18 19 21 23 24 24 25 24 23 22 20 20 20 21 21 21 23 26 29 30 27 25 24 24 24 23 22 21 20 19 18 18 18 19
4 9 11 14 14 10 9 9 9 15 11 4 6 6 4 6 6 7 8 7 9 8 6 6 5 0 4 4 6 9 11 11 11 11 14 16 17 17 18 20 21 21 21 21 20 20 18 18 20 18 18 19 17 16 19 21 22 23 24 24 24 25 24 23 22 21 23 23 21 21 22 26 29 29 27 25 25 24 24 23 21 21 20 19 18 19
4 7 10 10 12 16 15 8 8 13 9 7 8 6 4 6 6 5 7 7 9 9 6 7 9 6 4 3 5 9 11 10 9 9 10 13 15 16 17 19 21 21 22 23 23 24 22 22 21 18 19 21 18 16 17 19 21 23 23 23 24 26 25 26 25 24 24 24 24 23 21 21 23 27 29 29 28 26 25 24 23 23 23 22 22 22
3 4 7 9 12 16 13 7 8 11 6 6 8 7 5 6 7 6 7 7 7 8 6 8 9 5 4 5 7 9 9 8 9 8 8 11 15 18 18 20 22 22 21 23 24 25 27 27 25 21 22 22 19 18 18 19 21 22 21 22 25 27 27 28 27 27 26 25 25 26 27 24 21 22 26 30 31 30 26 25 25 25 26 26 26 26
3 3 7 11 13 12 8 8 11 11 9 8 8 8 7 6 7 7 7 5 4 4 5 7 8 3 4 6 7 8 7 7 8 7 7 12 15 17 18 20 22 21 21 23 24 25 27 29 27 25 24 23 21 21 20 19 21 22 22 22 23 23 25 28 28 27 26 26 26 27 29 30 28 26 27 29 31 32 30 29 28 27 28 28 28 28
3 3 7 10 10 9 10 13 10 8 11 12 8 7 7 7 7 7 7 5 4 5 5 7 8 2 2 4 5 6 5 5 7 7 8 12 15 17 18 20 22 22 22 24 26 27 28 28 28 27 26 24 23 23 21 20 21 23 24 23 22 21 21 22 25 26 27 27 26 26 26 28 30 31 31 31 31 31 32 33 35 33 30 29 29 29
5 3 5 8 9 10 14 14 9 12 18 16 11 8 7 6 6 5 7 7 7 8 7 7 7 1 1 1 2 4 4 5 8 10 10 14 17 19 21 23 25 25 25 27 28 30 30 30 29 29 28 26 26 24 22 21 22 24 25 23 23 22 21 21 22 24 28 28 27 26 26 28 30 31 31 31 30 31 32 36 39 39 36 33 30 29
8 3 4 8 8 8 10 9 8 14 16 13 10 7 6 4 4 3 6 6 7 7 5 6 5 1 2 2 1 5 7 8 11 13 14 17 19 21 23 26 27 29 30 30 31 33 34 33 32 31 29 28 27 25 23 23 25 26 26 24 23 23 23 23 22 23 25 26 27 28 29 30 30 31 31 28 27 30 35 39 40 40 40 37 33 30
6 3 6 8 8 8 8 7 7 9 9 9 7 6 6 6 6 5 5 5 5 4 6 6 6 3 1 1 2 6 9 10 12 14 16 17 18 21 24 27 29 30 31 32 34 36 36 35 33 31 29 27 26 26 25 25 27 27 26 25 24 24 24 23 23 23 24 26 28 30 31 31 31 32 31 27 27 30 38 43 41 38 39 39 35 30
3 3 6 7 8 11 11 10 11 10 9 7 4 6 6 7 7 6 4 4 5 6 8 6 5 6 6 5 6 8 7 9 12 15 18 19 21 23 26 29 31 31 32 33 36 38 36 33 30 28 27 27 27 27 28 28 29 29 28 26 25 25 24 24 23 23 24 26 28 30 31 32 33 33 30 29 31 34 41 45 41 36 35 36 34 32
2 3 6 6 7 8 11 13 15 14 12 7 5 6 6 6 6 4 2 4 5 6 6 5 5 10 12 12 13 12 8 8 12 17 20 23 25 27 28 30 31 32 34 37 37 36 33 30 27 27 28 29 30 30 31 32 31 29 28 26 26 25 25 24 24 23 24 26 28 29 30 32 33 32 31 34 36 39 44 47 41 34 32 32 33 34
1 5 6 8 9 10 14 18 17 16 14 8 5 5 5 5 6 4 2 5 6 4 6 7 10 12 12 14 16 13 8 8 12 18 22 24 26 29 31 31 32 34 36 36 34 32 31 30 29 29 30 31 32 32 32 32 32 32 32 30 27 26 25 25 25 25 25 26 27 29 31 32 33 34 35 38 40 43 46 47 40 33 32 33 34 35
1 5 6 9 13 15 16 17 14 14 13 6 6 5 5 5 5 5 4 6 7 4 8 11 13 14 13 14 15 13 11 11 16 22 25 27 28 30 32 32 34 35 33 30 31 31 31 32 31 32 33 32 32 32 32 33 34 34 33 30 28 27 26 26 26 26 26 27 28 30 31 33 35 38 40 41 42 44 46 43 37 34 35 36 36 36
2 3 8 11 14 14 14 13 12 14 13 5 5 5 6 4 5 5 4 6 7 7 10 12 15 15 12 12 14 17 19 19 22 26 28 29 31 31 33 34 35 34 30 29 32 34 33 33 32 32 31 31 31 31 32 34 33 30 28 28 29 29 28 27 27 28 29 29 28 29 32 35 37 41 43 43 43 44 42 38 35 35 37 38 38 38
4 5 10 10 10 10 10 11 12 14 14 6 4 5 6 5 5 4 3 5 6 8 11 13 14 13 12 14 17 19 21 23 25 27 29 31 32 31 33 35 33 29 30 33 35 35 34 33 31 29 29 30 31 33 34 34 34 32 30 30 31 31 30 29 30 32 31 31 32 34 36 37 38 41 43 43 43 41 36 34 34 35 38 40 40 40
4 5 8 7 7 8 8 11 14 16 15 6 3 5 7 5 5 5 5 5 6 10 12 12 11 10 11 15 17 19 23 25 25 27 28 30 31 32 34 33 29 28 32 35 35 34 33 31 28 27 29 31 33 34 36 38 38 37 36 35 34 33 33 32 33 34 34 35 38 40 40 39 38 39 40 40 38 35 33 33 33 35 39 42 42 41
3 4 6 5 7 8 10 14 14 12 11 4 3 5 6 6 7 8 8 8 9 9 9 9 10 9 11 15 15 17 20 22 24 27 28 29 32 33 31 29 29 32 35 35 34 33 30 27 25 27 30 32 34 36 37 37 37 36 35 35 34 34 34 34 34 35 36 38 40 41 40 39 38 38 37 35 32 31 32 32 34 37 42 44 43 39
4 4 4 4 5 8 12 14 11 7 6 2 3 4 6 7 8 10 12 12 10 8 8 9 10 9 12 13 13 15 19 22 27 30 29 31 33 31 28 29 32 35 36 34 32 30 27 26 27 30 34 36 36 36 36 36 35 34 33 32 32 31 31 32 33 35 37 39 41 42 42 41 39 38 35 30 27 28 30 32 35 40 44 43 41 37
4 5 4 3 4 7 9 9 8 6 2 3 5 6 7 7 8 13 15 12 9 11 11 9 9 11 14 18 19 22 26 30 33 32 30 31 30 27 30 33 36 37 36 34 31 28 26 27 31 35 38 38 35 35 37 39 38 37 36 36 36 37 37 38 40 40 41 42 43 43 43 40 36 33 29 25 25 28 32 34 38 41 42 40 37 34
4 4 4 4 4 5 5 5 6 7 3 3 4 6 8 7 9 14 15 11 8 9 8 7 9 14 20 24 27 28 32 35 35 31 27 26 25 28 33 37 38 37 36 34 31 28 28 31 34 36 37 36 35 36 40 42 38 36 37 37 38 40 41 41 42 42 42 42 40 38 35 31 27 25 25 27 31 34 35 36 38 39 38 36 34 32
4 3 4 5 3 3 5 6 6 8 6 1 1 4 6 8 10 10 12 12 7 4 7 9 12 19 24 26 27 30 33 32 27 23 22 22 24 31 37 39 39 38 36 33 30 29 32 35 37 37 37 36 35 37 41 40 36 34 35 37 38 38 36 37 39 41 40 36 33 30 27 24 23 25 30 34 36 36 35 35 37 38 37 35 33 31
6 4 4 4 3 3 6 6 5 7 6 1 2 3 8 14 15 11 12 11 2 4 16 19 17 23 26 25 27 30 28 20 13 14 20 26 31 36 39 39 39 39 37 33 31 33 35 37 39 41 40 37 35 38 40 36 33 34 37 38 37 35 36 38 39 38 34 32 32 33 31 29 29 31 32 32 31 31 33 35 37 37 36 34 32 29
5 4 2 3 4 4 5 6 5 5 4 2 4 6 16 23 20 14 11 8 1 11 25 24 21 26 26 25 29 26 17 10 9 14 25 34 37 39 39 40 41 41 37 33 32 35 37 39 40 39 37 36 38 39 36 32 33 36 38 37 36 36 38 39 36 34 33 34 35 34 32 30 29 28 28 28 29 31 35 37 37 36 34 31 29 27
5 4 3 3 4 3 5 6 4 4 3 3 4 11 26 28 19 10 9 6 8 22 29 25 25 27 26 28 28 18 10 10 13 21 34 39 38 38 40 41 39 37 35 36 37 40 41 40 36 33 35 39 38 34 32 34 37 38 36 36 37 37 36 34 33 33 34 34 32 30 27 26 27 28 30 31 33 34 35 35 34 32 30 27 25 24
4 3 2 4 4 4 5 5 5 5 4 4 6 19 27 22 12 6 7 10 20 31 32 28 27 27 26 28 24 17 17 22 25 33 41 40 38 41 41 37 34 35 38 41 43 43 41 36 32 33 37 37 33 33 37 40 38 36 36 37 36 34 32 31 32 33 31 29 28 27 27 30 32 33 32 31 32 32 31 30 29 27 25 23 22 22
3 2 2 4 4 4 3 4 7 6 3 4 19 26 20 10 5 6 13 21 28 32 32 30 28 28 28 29 27 26 29 31 33 39 41 37 37 41 38 33 36 42 44 43 41 38 35 33 34 37 37 35 36 40 41 37 35 36 36 34 31 30 30 31 30 29 27 27 29 31 33 35 34 32 29 29 28 28 27 26 24 22 21 20 19 19
1 1 3 3 2 3 4 4 5 4 2 14 24 18 8 5 10 17 24 28 29 29 29 29 28 28 30 31 31 30 32 35 38 39 38 36 37 36 33 33 39 43 43 40 36 34 34 35 37 38 38 40 41 39 34 32 34 35 33 30 29 30 29 28 27 27 29 32 33 34 34 32 30 28 26 25 23 22 23 22 20 19 18 17 17 17
2 2 2 1 1 2 3 2 3 9 15 22 20 12 11 17 23 28 30 28 26 26 27 27 29 30 31 33 33 33 35 40 41 39 38 39 38 34 33 37 41 40 37 35 34 34 35 37 39 41 43 42 36 31 30 32 34 32 29 28 29 28 27 27 28 31 33 33 32 31 29 28 26 24 22 20 20 21 21 20 19 18 17 17 17 17
6 6 3 3 3 3 6 9 14 21 25 24 21 20 26 30 31 30 28 27 26 27 26 28 30 31 31 33 34 36 38 40 40 39 40 40 36 34 37 41 40 37 34 33 34 36 38 41 42 43 40 34 30 30 33 32 29 29 28 28 27 25 26 28 30 31 31 30 29 29 28 26 23 21 20 20 21 21 20 19 19 19 18 17 17 17
8 8 4 2 3 7 13 17 20 24 26 26 27 28 30 31 30 27 26 26 27 28 28 28 30 32 33 32 33 37 39 39 38 39 38 35 35 38 41 42 39 35 33 33 36 40 43 42 40 37 33 31 32 34 34 29 27 27 27 25 24 25 28 29 30 31 31 30 29 28 27 25 23 22 22 22 20 19 18 18 17 17 17 17 17 16
5 6 4 3 4 6 8 11 14 19 25 29 32 32 30 28 27 26 27 29 30 30 30 28 30 33 32 30 33 37 39 37 37 37 35 34 37 41 42 40 38 35 33 35 41 45 43 39 35 33 31 33 35 34 31 28 27 26 24 24 26 29 30 30 31 33 33 31 30 28 26 25 25 24 23 22 20 19 18 17 16 16 16 16 16 16
4 5 3 4 6 7 11 17 22 26 27 27 27 27 27 27 28 29 29 30 31 32 30 28 30 32 30 31 35 39 38 36 35 34 35 36 40 42 42 40 38 35 36 41 45 43 38 35 34 32 33 35 35 32 30 28 27 25 24 27 30 32 31 30 32 34 34 32 29 28 26 25 25 24 23 22 20 19 18 17 16 16 16 15 15 16
5 5 4 5 6 8 13 18 22 23 22 22 23 25 27 30 32 32 31 30 31 32 30 29 30 29 28 32 37 38 37 37 34 33 35 38 40 42 42 40 37 36 41 46 44 38 35 34 32 32 34 35 33 31 29 28 26 25 25 29 32 32 31 32 33 35 34 31 29 27 26 25 25 24 23 22 21 20 18 17 16 16 16 15 14 16
5 4 5 5 5 6 8 12 15 14 14 20 27 31 33 34 34 33 31 30 30 31 31 32 31 29 30 35 37 36 36 36 34 33 36 39 40 42 42 39 37 40 45 46 40 36 34 33 31 32 34 34 32 30 29 28 27 25 26 29 32 32 33 34 35 34 33 31 28 27 26 25 24 24 23 23 22 21 20 18 17 16 15 14 14 15
13 11 8 6 7 11 16 20 20 17 18 25 32 35 36 35 33 31 30 30 30 32 32 31 30 31 37 41 39 35 34 34 33 34 38 41 42 42 40 36 37 43 46 42 36 36 35 32 32 33 34 33 32 29 28 28 27 26 26 29 31 33 34 34 34 32 31 29 28 27 26 25 24 23 23 22 21 21 22 21 19 16 14 12 12 13
Wind_Direction
24 305 269 264 283 312 340 345 334 326 321 314 305 294 284 282 283 280 281 236 153 195 246 241 266 273 260 120 117 106 103 99 97 94 85 81 72 66 60 52 47 41 34 28 27 28 27 30 32 32 33 33 34 29 19 9 344 308 295 289 282 299 292 245 229 227 230 237 246 249 247 243 240 239 239 240 240 238 236 235 233 230 228 225 223 223
325 270 267 306 333 345 337 327 322 311 305 302 291 283 280 271 275 284 287 147 113 144 262 268 276 272 238 116 113 105 99 88 92 94 87 83 75 66 59 51 45 39 33 28 29 29 29 31 33 35 35 35 36 32 27 20 8 352 331 324 321 321 322 289 259 242 231 232 239 247 253 255 252 249 247 245 243 241 239 237 234 232 230 227 226 226
273 244 356 353 346 337 314 310 304 292 287 284 281 276 277 277 282 292 316 101 152 200 277 278 267 267 118 107 102 97 94 86 86 89 88 85 77 68 59 52 45 37 33 30 30 31 31 32 33 36 36 37 38 37 34 29 17 3 348 342 341 335 329 322 308 279 256 242 237 243 251 252 251 248 247 246 245 243 239 235 233 232 230 228 228 229
299 302 17 341 328 323 309 315 306 292 284 264 270 272 273 301 309 302 329 302 279 257 271 272 264 257 117 112 97 100 104 100 93 89 86 83 81 75 66 58 48 41 35 31 31 31 33 34 34 36 36 37 39 39 38 35 30 23 11 358 348 344 339 329 324 319 296 265 245 237 243 245 245 245 244 243 243 243 240 237 234 234 235 234 232 232
279 294 354 339 323 326 310 310 310 304 304 283 284 291 294 325 321 307 311 308 300 272 259 261 266 251 167 155 128 118 117 110 106 98 90 85 83 78 69 60 49 41 33 29 28 27 30 32 33 35 36 36 37 37 37 36 34 31 26 18 5 353 345 338 332 328 322 294 260 243 241 240 242 245 246 245 243 244 243 242 241 241 242 240 237 237
279 298 16 349 324 328 306 296 324 343 331 309 314 338 325 331 316 302 305 310 306 286 268 244 273 269 170 163 151 141 135 121 113 105 97 89 81 73 64 56 45 38 31 26 24 23 24 26 29 31 32 33 34 34 33 32 32 30 28 26 20 10 357 347 340 334 331 325 304 278 263 251 247 245 245 245 246 246 246 247 247 244 243 241 239 240
284 329 49 337 321 325 306 293 357 11 339 307 297 318 316 315 301 293 297 298 276 281 295 255 263 279 199 173 160 148 140 127 118 105 97 90 80 72 64 55 46 38 31 26 23 22 22 21 22 23 23 25 26 28 28 27 26 25 25 23 22 19 13 4 353 343 333 327 328 325 324 311 282 257 242 242 246 248 250 250 249 247 246 244 242 242
256 309 305 346 340 321 319 343 9 4 325 285 285 330 316 300 288 283 281 268 256 278 284 260 241 260 262 190 150 143 136 129 123 108 98 91 82 75 67 58 50 40 33 29 24 22 20 19 18 18 17 17 18 19 20 20 20 19 19 18 17 17 16 13 7 359 349 338 332 327 326 323 310 292 268 256 251 250 253 253 254 256 255 252 248 246
186 323 345 28 358 316 346 356 330 340 291 268 306 327 298 279 274 274 269 262 265 282 281 266 237 251 267 135 131 136 135 136 128 113 102 92 84 76 67 58 49 41 35 29 24 20 19 18 17 16 15 14 14 15 15 15 15 14 13 12 11 11 12 11 8 6 3 356 347 336 327 320 313 305 291 278 269 261 258 255 252 257 262 262 259 254
302 25 29 56 357 312 -0 325 306 287 251 292 324 302 280 268 262 261 253 253 264 261 266 269 259 260 263 134 143 152 143 143 127 108 102 94 86 75 64 54 41 33 30 25 21 16 13 14 15 13 12 13 12 11 11 11 12 10 8 6 5 5 6 7 6 4 2 360 356 350 341 330 320 309 297 286 278 268 262 258 250 247 254 262 264 263
265 99 56 52 335 327 328 300 288 252 255 318 328 294 284 277 261 254 238 216 242 251 256 266 265 260 258 127 119 111 100 119 121 114 106 96 84 71 60 47 34 26 21 18 16 12 7 6 9 9 7 7 7 7 7 7 8 9 7 4 2 360 358 359 2 2 0 358 356 354 351 346 338 327 315 300 288 277 266 260 254 247 245 251 258 263
301 286 102 45 -0 350 279 292 294 259 266 321 298 286 300 294 279 273 255 176 189 257 263 274 285 274 265 61 78 51 46 72 98 108 104 95 81 68 55 41 30 23 16 12 11 10 6 2 4 5 2 2 2 1 2 3 4 5 5 4 2 359 355 353 353 356 357 356 354 352 350 348 346 343 336 325 312 298 283 270 261 254 248 245 249 255
334 83 116 54 7 7 297 308 318 297 287 293 287 299 311 307 301 298 293 265 249 270 276 326 350 327 292 80 91 83 64 62 71 80 87 83 72 59 45 30 20 17 15 11 7 5 4 2 360 358 359 0 359 357 357 358 359 360 1 2 2 1 358 353 350 349 350 351 351 351 349 347 345 343 341 338 330 319 307 294 279 268 259 250 246 247
348 93 88 67 70 216 302 324 322 317 315 309 306 310 301 304 303 295 295 285 272 275 287 313 318 293 152 87 77 83 76 70 69 70 71 66 56 45 32 20 11 8 9 7 7 5 1 357 353 352 353 355 355 353 351 352 353 354 355 357 357 359 358 355 352 349 347 347 347 347 347 346 343 341 340 337 334 327 319 312 302 291 279 267 258 249
331 338 36 54 344 314 309 310 289 297 310 297 291 293 276 278 285 282 287 290 287 287 288 290 291 283 123 93 78 80 74 68 66 62 58 54 47 37 23 12 6 3 1 0 3 5 0 356 351 346 344 346 350 350 347 348 350 348 349 351 352 353 354 353 351 348 346 345 344 344 343 342 341 340 338 335 332 329 322 316 311 304 296 285 274 265
308 298 329 345 320 306 297 290 273 288 295 286 293 303 281 273 279 279 277 280 282 283 281 274 285 46 81 107 90 80 73 64 57 51 47 44 37 27 15 8 4 1 358 356 356 357 358 357 352 341 336 336 340 343 342 343 345 346 345 345 345 347 349 347 347 345 344 342 340 340 340 339 338 336 335 334 331 328 324 319 314 308 302 295 288 280
326 297 311 325 312 288 261 268 284 284 284 308 308 291 281 286 291 285 281 276 274 276 275 265 233 99 111 112 84 74 68 55 44 38 36 30 20 14 11 8 3 360 357 354 351 348 348 352 351 342 332 328 329 334 337 338 340 342 341 340 339 341 343 342 342 341 340 339 337 335 336 336 337 336 333 332 331 328 325 320 316 311 304 299 294 288
352 299 304 323 319 313 288 265 265 272 272 285 293 294 295 279 271 279 288 283 276 275 270 277 292 49 112 103 75 60 48 41 34 27 23 18 11 7 7 4 0 360 358 355 352 346 341 342 345 342 332 325 322 324 330 333 334 336 336 334 334 336 338 339 338 337 335 336 335 331 330 331 333 336 335 332 330 327 325 321 317 313 308 303 295 286
5 297 300 320 319 321 317 295 282 282 264 237 269 319 345 296 300 308 300 299 295 294 301 329 339 9 66 64 58 45 32 28 25 18 13 11 7 359 356 357 356 356 355 354 353 349 344 339 337 335 332 326 318 316 324 326 326 331 332 330 330 332 333 335 336 335 331 331 332 330 328 325 324 328 332 333 331 328 324 322 319 314 309 303 296 289
339 283 295 313 313 318 320 316 321 323 315 268 287 340 357 319 334 338 317 318 319 314 325 344 348 15 47 31 42 40 28 20 14 10 1 358 355 348 347 354 353 350 351 351 348 346 344 340 334 329 330 328 320 315 319 319 319 325 329 328 328 329 330 332 332 331 330 329 329 327 329 329 324 321 324 327 329 329 326 322 318 315 311 305 298 294
322 279 289 305 312 317 325 333 334 344 356 346 339 360 7 354 352 343 331 343 351 329 326 326 330 26 54 29 43 40 24 14 5 -0 344 337 341 344 346 349 346 342 343 342 339 338 338 338 334 327 324 322 317 314 315 315 316 321 324 324 324 324 327 330 332 330 328 328 327 326 328 329 327 325 325 323 323 325 325 325 320 315 312 307 302 297
353 302 291 301 315 322 324 328 338 14 15 358 349 10 20 9 3 346 329 340 343 321 310 311 315 8 51 13 44 40 17 5 348 334 326 328 333 337 337 338 336 335 336 333 332 332 332 333 331 326 320 316 314 314 314 315 315 318 321 321 320 317 316 320 324 323 321 321 320 320 321 320 318 319 322 323 321 318 319 323 323 319 313 309 305 299
1 302 277 298 310 311 315 321 341 12 8 353 343 13 30 15 19 357 319 325 324 311 312 315 315 312 199 280 45 31 357 345 335 326 323 326 329 329 331 334 333 331 331 331 330 330 330 329 326 323 319 314 313 315 315 314 314 315 316 316 315 315 313 313 314 314 315 317 316 313 311 309 309 311 315 319 319 316 316 319 321 320 316 312 308 301
354 318 289 308 302 295 304 314 339 1 2 344 333 11 38 25 21 320 286 306 308 312 338 326 313 336 176 212 -0 359 344 333 331 332 331 328 329 331 333 333 332 330 329 329 329 328 327 325 323 321 317 314 314 315 315 314 314 314 314 312 311 311 311 311 311 311 313 313 311 309 306 304 305 307 311 314 311 310 316 319 318 317 316 313 310 303
348 326 320 319 313 314 315 314 334 355 354 326 331 29 43 26 8 321 288 306 309 356 16 328 296 329 58 170 318 342 341 327 324 329 328 325 327 330 330 329 329 329 327 326 327 325 324 323 322 320 319 318 317 317 317 316 316 314 312 310 309 308 307 306 306 307 308 308 307 306 305 303 302 303 307 306 300 305 317 321 319 316 313 312 311 307
312 309 324 324 325 326 327 327 330 336 329 319 357 37 30 33 19 343 320 316 319 356 354 318 292 318 326 319 318 326 327 313 314 321 322 323 325 327 328 328 328 328 326 325 324 322 321 321 322 322 323 322 320 318 317 316 314 312 309 307 307 306 305 304 303 301 302 305 307 306 305 303 302 301 300 296 293 301 315 320 319 314 310 311 312 310
294 305 316 324 327 316 313 315 315 317 317 327 25 33 27 37 19 357 339 315 323 330 314 308 328 322 318 324 324 321 317 310 318 327 329 329 328 328 328 327 327 328 325 322 320 320 322 324 324 324 322 320 317 315 313 312 310 308 305 303 303 303 303 302 303 303 303 306 308 307 306 304 302 298 293 290 291 298 309 315 315 311 310 312 312 310
322 311 325 333 327 310 304 305 307 313 320 343 40 37 29 27 9 14 357 324 337 324 295 315 328 316 314 322 320 317 318 321 327 330 329 326 325 326 327 327 328 326 323 322 324 326 327 326 324 322 319 317 315 313 311 310 307 304 302 299 297 299 300 300 301 302 303 305 307 307 306 303 299 293 288 288 290 296 305 311 311 309 311 313 311 309
287 300 345 341 319 307 302 301 308 320 327 4 61 30 21 27 5 3 342 337 356 328 295 311 315 309 312 314 312 317 326 328 326 324 323 324 325 326 328 329 327 323 322 327 331 331 327 323 320 318 317 317 316 316 316 314 311 306 302 299 296 295 295 296 299 301 302 303 304 306 306 302 296 290 287 286 289 295 303 307 305 304 307 311 311 310
6 313 342 329 306 301 301 305 321 330 327 353 66 35 21 19 353 -0 354 343 345 310 295 307 307 302 306 309 313 324 329 326 322 321 324 327 327 328 329 325 320 320 326 331 330 325 320 318 317 317 318 319 320 321 322 321 319 314 306 302 301 299 296 296 300 301 300 299 300 303 305 302 295 291 288 286 289 296 301 300 297 297 303 309 311 310
13 335 328 319 299 298 308 315 327 327 318 322 81 47 14 2 353 3 349 334 331 307 302 308 303 297 307 319 322 324 325 323 320 322 326 327 326 328 325 318 315 322 330 330 326 322 319 318 318 318 320 323 324 326 327 327 324 319 313 308 306 303 298 296 299 299 295 292 294 299 304 303 298 293 289 287 291 296 296 291 289 293 303 310 311 310
12 330 317 317 303 304 319 323 324 321 312 307 82 31 4 3 349 334 325 332 328 311 309 309 303 300 317 329 329 324 324 323 321 323 324 323 325 324 317 311 316 329 331 328 325 322 320 320 319 321 324 325 326 327 326 323 320 316 312 309 306 303 298 296 296 295 290 289 294 301 306 306 301 294 289 288 290 291 287 283 284 294 306 310 310 308
5 328 316 320 303 301 318 322 321 319 311 306 82 30 1 352 335 321 318 319 313 305 304 301 299 308 325 332 329 324 323 321 319 321 323 322 320 315 310 314 325 329 327 324 322 320 320 321 322 324 326 325 325 325 323 321 319 315 311 309 306 302 298 296 294 291 290 294 300 305 306 305 301 294 288 285 284 282 279 279 284 296 307 310 308 305
349 333 315 312 300 301 314 318 320 318 314 321 96 56 11 347 333 319 311 310 305 294 285 289 300 320 327 325 321 317 317 317 316 318 320 317 312 310 317 327 328 325 323 321 320 318 319 320 319 320 321 321 322 323 323 321 317 313 311 310 308 305 302 299 297 296 297 300 303 303 303 302 297 291 285 281 278 277 276 278 286 299 307 307 305 302
352 342 313 298 293 298 309 322 326 323 336 121 112 58 16 348 333 318 306 300 296 294 298 307 318 322 318 317 319 319 317 315 313 314 315 312 311 320 329 328 323 320 320 318 317 317 318 318 318 318 318 318 318 318 320 320 315 309 307 306 306 306 305 304 302 301 301 301 301 302 304 301 293 286 282 281 283 285 283 284 291 300 305 304 302 299
17 332 311 308 292 296 322 336 316 308 334 95 86 30 11 353 341 325 307 300 305 308 314 321 316 317 319 321 321 320 317 314 309 308 309 311 317 328 328 322 318 317 317 315 314 315 316 318 318 316 313 313 311 313 319 322 317 311 310 309 308 307 305 303 302 301 301 303 304 305 304 299 290 284 284 289 294 293 289 290 294 300 303 303 301 299
45 334 319 318 297 307 324 311 289 297 316 32 67 7 9 350 336 323 306 306 313 328 335 331 322 324 323 318 317 318 317 312 305 303 309 316 323 327 323 318 317 316 314 312 310 312 315 318 318 316 313 310 307 312 319 320 315 312 311 312 312 310 306 304 303 304 304 306 308 307 303 298 293 291 291 294 295 293 290 291 295 299 302 302 301 299
37 349 325 310 312 340 319 306 311 308 303 215 212 306 355 342 331 326 310 298 255 16 348 341 329 320 318 315 318 321 317 309 299 305 318 324 326 325 322 320 320 319 316 313 312 315 317 318 318 316 312 307 307 313 317 314 311 312 313 312 312 310 306 305 307 308 306 305 306 306 305 303 303 302 301 299 295 291 290 293 296 298 300 301 300 298
15 347 324 291 305 325 318 315 315 297 286 205 229 310 345 342 337 333 308 279 101 2 343 334 318 313 316 318 320 321 316 304 296 309 321 326 327 326 324 321 320 319 317 315 317 319 319 318 317 316 313 311 312 314 314 312 313 315 313 311 310 307 306 307 309 308 305 304 307 309 308 308 307 305 302 295 290 290 292 294 296 297 299 299 298 297
3 352 338 315 308 318 322 311 283 267 281 233 239 335 344 338 332 324 289 281 345 339 329 322 313 313 317 318 319 318 306 298 303 312 319 321 321 323 323 319 317 320 321 320 320 319 317 316 316 316 318 318 316 315 315 316 316 314 311 310 309 308 309 310 308 307 307 309 311 311 308 305 303 302 299 295 293 294 295 296 298 299 299 298 296 296
341 336 318 314 309 309 310 297 280 278 263 236 311 342 341 328 314 297 281 308 326 322 318 317 314 314 317 317 315 307 299 301 306 312 316 316 315 317 318 316 316 320 321 318 315 315 314 314 314 316 318 317 315 316 317 317 314 311 310 311 310 311 312 311 310 312 313 314 312 307 303 301 302 304 303 301 301 300 299 300 301 300 299 298 297 297
332 343 314 305 311 313 280 275 291 278 206 341 335 336 338 328 298 290 300 311 315 313 312 315 314 316 319 315 308 304 304 307 310 312 314 314 315 317 315 314 317 318 317 315 314 315 316 316 317 318 317 314 314 316 316 314 310 310 312 313 312 313 314 314 315 314 312 309 306 303 303 304 306 308 307 305 305 303 301 302 301 299 299 299 299 299
312 332 296 282 314 319 283 282 290 252 287 340 334 332 342 330 306 306 308 310 310 309 311 314 316 318 317 313 310 311 311 312 313 313 313 313 315 316 314 316 319 319 318 317 318 320 321 321 320 319 317 315 316 316 314 312 311 313 316 315 314 315 316 316 314 309 306 306 307 308 309 311 312 312 310 309 309 307 305 305 305 303 303 304 306 307
180 158 281 259 98 344 296 280 259 263 294 321 325 315 308 308 308 310 310 307 308 311 314 316 316 316 315 314 314 315 314 314 314 314 313 313 314 315 316 319 321 320 319 319 319 320 321 320 319 317 317 317 317 315 313 314 315 316 316 315 316 318 318 314 309 308 310 313 315 317 319 319 317 316 315 316 317 314 311 311 312 310 309 309 308 307
178 178 235 246 191 211 230 245 267 278 292 307 311 305 306 307 308 309 306 304 308 313 316 315 313 313 314 315 315 315 314 312 312 313 313 313 314 315 318 321 321 319 318 318 318 319 319 318 317 317 317 318 316 314 315 318 318 317 316 317 320 319 314 311 312 315 319 321 323 324 324 323 321 323 325 324 321 317 313 312 309 307 307 306 304 303
186 187 215 240 247 256 250 251 267 283 294 302 304 304 305 305 306 308 307 306 309 311 312 311 311 312 313 315 317 315 313 311 311 311 312 313 315 317 319 319 318 318 317 316 317 319 319 318 318 318 318 316 314 315 319 321 319 317 317 318 317 314 312 315 321 326 328 328 327 326 327 328 329 331 331 327 323 319 316 311 306 302 302 302 301 302
188 186 207 240 267 283 270 258 269 285 295 302 306 306 304 303 306 309 310 309 309 310 309 308 310 311 312 315 318 314 311 311 311 311 312 314 317 318 318 317 317 316 315 316 319 320 320 320 321 321 317 314 315 319 322 321 319 319 316 311 311 314 317 321 325 328 330 330 329 328 330 332 333 332 330 329 328 326 323 319 312 305 299 296 295 293
178 174 205 234 240 256 270 278 286 290 292 297 300 299 300 305 309 310 309 308 309 308 305 305 309 310 311 316 318 314 311 311 311 311 313 315 316 317 317 316 315 313 314 317 320 321 320 320 321 319 315 315 318 322 322 321 321 320 312 307 312 317 321 323 324 325 327 329 329 329 331 331 331 330 330 330 332 332 330 329 324 315 306 301 300 300
186 181 216 236 250 259 267 283 298 302 299 299 301 302 306 310 312 311 309 309 309 308 305 304 307 308 310 315 317 314 310 310 310 311 313 313 314 316 317 315 312 312 315 319 321 321 321 320 319 316 315 316 319 322 322 322 323 319 310 308 315 320 322 323 324 323 325 327 327 328 328 328 328 331 332 331 331 331 332 333 332 326 317 312 313 312
193 213 239 249 277 276 269 288 304 304 297 302 308 310 311 312 312 311 309 310 311 310 307 306 306 307 310 315 316 313 309 308 310 312 313 312 313 315 315 312 310 312 316 320 321 320 320 320 317 314 316 318 320 322 322 322 323 320 310 309 316 321 323 324 324 323 323 325 325 326 326 326 329 331 331 330 331 332 332 333 335 332 325 315 309 306
219 226 223 218 253 268 275 288 296 290 287 297 304 307 309 311 311 308 307 310 312 311 309 308 309 312 314 316 316 312 307 307 309 312 313 312 312 314 313 309 309 313 318 321 320 319 320 320 316 315 318 319 320 322 321 320 322 318 309 310 317 321 322 324 323 322 323 323 323 323 324 325 328 329 329 330 332 333 332 331 331 333 333 324 311 301